Regional Weather Roundup
Issued by NWS

Home | Current Version | Previous Version | Text Only | Print | Product List | Glossary Off
Versions: 1 2 3 4 5 6 7 8 9 10 11 12 13 14 15 16 17 18 19 20 21 22 23 24 25 26 27

000
ASUS45 KTFX 261710
RWRMT
MONTANA REGIONAL WEATHER ROUNDUP
NATIONAL WEATHER SERVICE GREAT FALLS MT
1100 AM MDT SAT MAY 26 2018

NOTE: "FAIR" INDICATES FEW OR NO CLOUDS BELOW 12000 FEET WITH NO
SIGNIFICANT WEATHER AND/OR OBSTRUCTIONS TO VISIBILITY.

MTZ001>007-043-261800-
WEST OF THE DIVIDE

CITY           SKY/WX    TMP DP  RH WIND       PRES   REMARKS
KALISPELL      CLOUDY    61  57  87 S9        29.89S
MISSOULA       PTSUNNY   64  53  67 N6        29.92S
BUTTE          FAIR      62  45  53 CALM      29.94S
MULLAN PASS    LGT RAIN  44  44 100 W3        30.01R VSB 1/4
ANACONDA         N/A     61  48  63 N7        29.93R
DEER LODGE       N/A     61  48  63 N5        29.95R
HAMILTON         N/A     61  48  63 MISG      29.92F
PLAINS           N/A     61  56  83 CALM      29.93R
RONAN            N/A     64  52  63 CALM      29.92S
$$

MTZ008-052>055-261800-
SOUTHWEST MONTANA

CITY           SKY/WX    TMP DP  RH WIND       PRES   REMARKS
BOZEMAN        FAIR      65  51  60 NW7       29.88F
DILLON         FAIR      63  46  54 W5        29.90F
ENNIS          SUNNY     63  48  59 VRB5      29.95S
W YELLOWSTONE  FAIR      64  41  42 VRB7      29.96S
TWIN BRIDGES     N/A     64  48  56 SE5       29.90F
$$

MTZ009-010-012-014-046-048-049-054-261800-
EAST SLOPES AND CENTRAL MONTANA

CITY           SKY/WX    TMP DP  RH WIND       PRES   REMARKS
CUT BANK       CLOUDY    64  48  56 W16       29.84R
GREAT FALLS    FAIR      74  48  39 W7        29.81S
MALMSTROM AFB  FAIR      71  49  45 NW6       29.81S
HELENA         FAIR      71  52  50 NE9       29.84F
CHOTEAU          N/A     72  46  40 W15       29.86R
WHITE SULPHUR    N/A     64  46  52 CALM      29.87F
$$

MTZ011-013-016-021-045-047-050-051-261800-
NORTH CENTRAL MONTANA

CITY           SKY/WX    TMP DP  RH WIND       PRES   REMARKS
HAVRE          FAIR      76  51  41 SW10      29.73S
LEWISTOWN      FAIR      69  51  52 VRB3      29.84S
N BAR RANCH    FAIR      72  50  46 CALM      29.86F
$$

MTZ017>020-022>027-061-062-261800-
NORTHEAST MONTANA

CITY           SKY/WX    TMP DP  RH WIND       PRES   REMARKS
GLASGOW        FAIR      80  54  40 E9        29.71F
GLENDIVE       FAIR      80  57  45 E5        29.78F
JORDAN           N/A     78  55  44 S15G23    29.71S
MALTA          SUNNY     77  55  47 E12       29.69F
SIDNEY         FAIR      80  62  54 S5        29.77F
WOLF POINT     FAIR      80  57  45 CALM      29.74F
PLENTYWOOD       N/A     79  55  44 CALM      29.77S
POPLAR           N/A     82  54  36 CALM      29.75F
$$

MTZ028>42-056>058-261800-
SOUTHCENTRAL AND SOUTHEAST MONTANA

CITY           SKY/WX    TMP DP  RH WIND       PRES   REMARKS
BAKER          FAIR      81  56  42 SE14      29.81F
BILLINGS       PTSUNNY   72  57  59 VRB6      29.78F
LIVINGSTON     FAIR      70  51  51 W9        29.84F
MILES CITY     FAIR      78  63  59 E8        29.75F
BIG TIMBER     SUNNY     68  52  56 W9        29.85S
EKALAKA          N/A     81  57  43 E10       29.82F
FORSYTH          N/A     75  59  57 E10       29.73
LAUREL           N/A     72  55  56 NE5       29.78F
$$

REGIONAL REPORTS...DAKOTAS

CITY           SKY/WX    TMP DP  RH WIND       PRES   REMARKS
WILLISTON      FAIR      80  57  45 S10       29.77F
MINOT          FAIR      84  52  33 VRB5      29.74S
DICKINSON      FAIR      84  44  24 CALM      29.79S
BEACH          FAIR      82  52  34 VRB7      29.83S
CROSBY         FAIR      81  54  39 VRB3      29.77F
TIOGA          FAIR      81  48  32 VRB3      29.79F
WATFORD CITY   FAIR      86  52  30 SW9       29.77S
BISMARCK       FAIR      85  57  38 MISG      29.77F
GRAND FORKS    FAIR      83  57  41 W13G25    29.67S
FARGO          FAIR      88  53  30 NW14G24   29.70R
BUFFALO SD       N/A     84  56  38 SE13      29.74F
RAPID CITY     FAIR      79  61  53 S13       29.81F
$$

REGIONAL REPORTS...WYOMING/IDAHO/WASHINGTON

CITY           SKY/WX    TMP DP  RH WIND       PRES   REMARKS
GILLETTE       FAIR      80  48  32 S21G26    29.81F
SHERIDAN       FAIR      74  57  55 CALM      29.78F
BUFFALO WY     FAIR      80  52  37 S17       29.82F
CODY           FAIR      74  46  36 VRB3      29.86S
YELLOWSTONE LA   N/A     57  38  48 E5        30.05S
IDAHO FALLS    FAIR      64  47  53 SW12      29.91F
SALMON         FAIR      66  49  54 VRB3      29.87F
BOISE          FAIR      65  52  62 NW14G23   29.88S
SPOKANE        FAIR      60  43  53 S14       29.95R
$$

REGIONAL REPORTS...ALBERTA

CITY           SKY/WX    TMP DP  RH WIND       PRES   REMARKS
CALGARY        PTSUNNY   63  36  36 N16G24    29.86S
EDMONTON       SUNNY     59  36  41 NW8G17    29.81F
FORT MCMURRAY  SUNNY     64  50  59 W21G26    29.61F
HIGH LEVEL     CLOUDY    54  45  71 W12       29.54R
LETHBRIDGE     CLOUDY    66  46  48 N13G20    29.82R
LLOYDMINSTER   LGT RAIN  59  55  88 N14       29.72S
MEDICINE HAT   LGT RAIN  63  55  77 SW6       29.73R
MILK RIVER       N/A     64  52  63 N14G21      N/A
ONEFOUR          N/A     73  48  40 NW18G24     N/A
PEACE RIVER    MOSUNNY   59  32  36 W22G32    29.73S
PINCHER CREEK  PTSUNNY   64  48  55 E7G18     29.86R
WATERTON GATE    N/A     57  48  72 S7          N/A
$$

REGIONAL REPORTS...SASKATCHEWAN

CITY           SKY/WX    TMP DP  RH WIND       PRES   REMARKS
CORONACH         N/A     82  50  32 S9          N/A
CYPRESS HILLS    N/A     70  41  35 W7          N/A
ESTEVAN        CLOUDY    81  52  36 SW8       29.76S
MOOSE JAW        N/A     82  50  32 SE9         N/A
PRINCE ALBERT  PTSUNNY   66  57  72 NE2       29.72R
REGINA         PTSUNNY   77  55  47 S7        29.72F
ROCKGLEN         N/A     81  45  28 SW13        N/A
SASKATOON      PTSUNNY   77  57  50 S13G18    29.67F
SWIFT CURRENT  PTSUNNY   81  48  32 SW16G24   29.68F
VAL MARIE        N/A     72  46  40 S14G21      N/A
$$




USA.gov is the U.S. government's official web portal to all federal, state and local government web resources and services.